Date,TemperatureHighF,TemperatureAvgF,TemperatureLowF,DewpointHighF,DewpointAvgF,DewpointLowF,HumidityHigh,HumidityAvg,HumidityLow,PressureMaxIn,PressureMinIn,WindSpeedMaxMPH,WindSpeedAvgMPH,GustSpeedMaxMPH,PrecipitationSumIn
2013-1-1,24,22,20,-12,-98,-100,22,1,22,0.00,40.00,2,0,6,0.00
2013-1-2,22,20,19,-100,-100,-100,0,0,100,0.00,40.00,2,0,6,0.00
2013-1-3,32,20,18,32,-97,-100,100,2,100,0.00,40.00,1,0,3,0.00
2013-1-4,26,22,19,-100,-100,-100,0,0,100,0.00,40.00,2,0,6,0.00
2013-1-5,25,22,20,-100,-100,-100,0,0,100,0.00,40.00,1,0,2,0.00
2013-1-6,30,24,18,-100,-100,-100,0,0,100,0.00,40.00,3,1,7,0.00
2013-1-7,32,28,23,-100,-100,-100,0,0,100,0.00,40.00,3,1,14,0.00
2013-1-8,32,31,31,-100,-100,-100,0,0,100,0.00,40.00,3,0,14,0.00
2013-1-9,32,31,29,-100,-100,-100,0,0,100,0.00,40.00,2,0,9,0.00
2013-1-10,33,26,21,-100,-100,-100,0,0,100,0.00,40.00,3,1,13,0.00
2013-1-11,22,17,10,-100,-100,-100,0,0,100,0.00,40.00,0,0,2,0.00
2013-1-12,20,11,7,-31,-98,-100,8,0,8,0.00,40.00,1,0,2,0.00
2013-1-13,23,12,2,-100,-100,-100,0,0,100,0.00,40.00,1,0,5,0.00
2013-1-14,36,22,18,31,-96,-100,92,3,92,0.00,40.00,12,2,25,0.00
2013-1-15,28,17,13,-100,-100,-100,0,0,100,0.00,40.00,5,1,9,0.00
2013-1-16,22,19,15,-100,-100,-100,0,0,100,0.00,40.00,2,1,7,0.00
2013-1-17,25,20,18,-100,-100,-100,0,0,100,0.00,40.00,3,1,7,0.00
2013-1-18,23,18,14,-100,-100,-100,0,0,100,0.00,40.00,2,1,5,0.00
2013-1-19,22,15,9,-100,-100,-100,0,0,100,0.00,40.00,1,0,5,0.00
2013-1-20,27,16,8,-100,-100,-100,0,0,100,0.00,40.00,2,0,7,0.00
2013-1-21,21,17,13,-100,-100,-100,0,0,100,0.00,40.00,3,1,8,0.00
2013-1-22,22,17,12,-100,-100,-100,0,0,100,0.00,40.00,1,0,3,0.00
2013-1-23,26,22,17,-100,-100,-100,0,0,100,0.00,40.00,1,0,2,0.00
2013-1-24,24,20,14,-100,-100,-100,0,0,100,0.00,40.00,3,1,7,0.00
2013-1-25,32,25,21,-100,-100,-100,0,0,100,0.00,40.00,2,0,6,0.00
2013-1-26,32,28,26,-100,-100,-100,0,0,100,0.00,40.00,2,1,6,0.00
2013-1-27,33,26,17,-100,-100,-100,0,0,100,0.00,40.00,3,1,8,0.00
2013-1-28,35,28,22,-100,-100,-100,0,0,100,0.00,40.00,6,1,17,0.00
2013-1-29,42,37,34,37,-18,-100,96,51,67,0.00,40.00,8,6,22,0.00
2013-1-31,46,38,33,38,-36,-100,100,35,60,0.00,40.00,3,2,12,0.00